Chicago Midway, IL

6:28 PM CST on November 20, 2019 (GMT -0600)
Chicago-Midway

Weather History for KMDW - September, 2019

Change the Weather History Date:

Sunday, September 29, 2019

  Actual Average Record
Temperature  
Mean Temperature 66 °F 61 °F  
Max Temperature 69 °F 70 °F 99 °F (1953)
Min Temperature 62 °F 52 °F 33 °F (1942)
Degree Days  
Heating Degree Days 0 6  
Month to date heating degree days 1 74  
Since 1 July heating degree days 1 79  
Cooling Degree Days 1 2  
Month to date cooling degree days 180 119  
Year to date cooling degree days 1098 1029  
Growing Degree Days 16 (Base 50)    
Moisture  
Dew Point 63 °F    
Average Humidity 92    
Maximum Humidity 100    
Minimum Humidity 79    
Precipitation  
Precipitation 0.80 in 0.10 in 1.13 in (1929)
Month to date precipitation 7.91 3.22  
Year to date precipitation 37.82 29.77  
Sea Level Pressure  
Sea Level Pressure 30.13 in    
Wind  
Wind Speed 9 mph (East)    
Max Wind Speed 18 mph    
Max Gust Speed 24 mph    
Visibility 7 miles    
Events Rain , Thunderstorm    
T = Trace of Precipitation, MM = Missing Value Source: NWS Daily Summary

Daily Weather History Graph

Daily Weather History Graph

Search for Another Location

Airport or City:

Astronomy

Sep. 29, 2019 Rise Set
Actual Time 6:45 AM CDT 6:36 PM CDT
Civil Twilight 6:17 AM CDT 7:04 PM CDT
Nautical Twilight 5:45 AM CDT 7:36 PM CDT
Astronomical Twilight 5:12 AM CDT 8:09 PM CDT
Moon 7:35 AM CDT (9/29) 7:36 PM CDT (9/29)
Length of Visible Light 12h 46m
Length of Day
11h 50m
New Moon, 1% of the Moon is Illuminated
Sep 29
New Moon
Oct 5
First Quarter
Oct 13
Full
Oct 21
Last Quarter
Oct 27
New

Hourly Weather History & Observations

Time (CDT) Temp. Dew Point Humidity Pressure Visibility Wind Dir Wind Speed Gust Speed Precip Events Conditions
12:53 AM 64.0 °F 59.0 °F 84% 30.17 in 10.0 mi East 11.5 mph - N/A   Overcast
1:53 AM 63.0 °F 59.0 °F 87% 30.16 in 10.0 mi East 12.7 mph - 0.00 in Rain Light Rain
2:53 AM 63.0 °F 59.0 °F 87% 30.14 in 10.0 mi East 10.4 mph - 0.00 in   Overcast
3:53 AM 63.0 °F 60.1 °F 90% 30.16 in 6.0 mi East 9.2 mph - 0.01 in Rain , Thunderstorm Light Thunderstorms and Rain
4:53 AM 62.1 °F 61.0 °F 96% 30.14 in 2.0 mi East 10.4 mph - 0.40 in Rain , Thunderstorm Heavy Thunderstorms and Rain
5:25 AM 62.1 °F 61.0 °F 96% 30.15 in 3.0 mi East 9.2 mph - 0.21 in Rain , Thunderstorm Thunderstorms and Rain
5:41 AM 62.1 °F 61.0 °F 96% 30.16 in 5.0 mi East 10.4 mph - 0.23 in Rain Rain
5:53 AM 62.1 °F 61.0 °F 96% 30.15 in 6.0 mi East 10.4 mph - 0.25 in Rain Light Rain
6:53 AM 62.1 °F 62.1 °F 100% 30.17 in 6.0 mi East 6.9 mph - 0.04 in Rain Light Rain
7:01 AM 63.0 °F 62.1 °F 97% 30.18 in 5.0 mi East 8.1 mph - 0.00 in Rain Light Rain
7:40 AM 63.0 °F 62.1 °F 97% 30.18 in 8.0 mi East 12.7 mph - 0.01 in   Overcast
7:53 AM 63.0 °F 62.1 °F 97% 30.18 in 8.0 mi East 8.1 mph - 0.01 in Rain Light Rain
8:14 AM 64.0 °F 62.1 °F 93% 30.18 in 5.0 mi East 10.4 mph - 0.00 in Rain Light Rain
8:24 AM 64.0 °F 62.1 °F 93% 30.18 in 4.0 mi East 12.7 mph - 0.01 in Rain Light Rain
8:53 AM 64.0 °F 62.1 °F 93% 30.17 in 3.0 mi East 15.0 mph - 0.03 in Rain Light Rain
9:37 AM 64.0 °F 62.1 °F 93% 30.18 in 4.0 mi East 12.7 mph - 0.02 in Rain Light Rain
9:53 AM 63.0 °F 62.1 °F 97% 30.17 in 7.0 mi East 13.8 mph - 0.02 in   Overcast
10:53 AM 63.0 °F 61.0 °F 93% 30.15 in 9.0 mi East 13.8 mph 24.2 mph N/A   Overcast
11:53 AM 63.0 °F 61.0 °F 93% 30.14 in 9.0 mi East 13.8 mph 23.0 mph 0.02 in   Overcast
12:53 PM 64.0 °F 62.1 °F 93% 30.13 in 10.0 mi East 8.1 mph - N/A   Overcast
1:53 PM 66.9 °F 64.0 °F 90% 30.11 in 10.0 mi East 6.9 mph - N/A   Overcast
2:53 PM 69.1 °F 64.0 °F 84% 30.10 in 10.0 mi ESE 6.9 mph - N/A   Overcast
3:53 PM 69.1 °F 64.0 °F 84% 30.10 in 10.0 mi East 6.9 mph - 0.00 in Rain Light Rain
4:53 PM 69.1 °F 64.9 °F 87% 30.10 in 9.0 mi ENE 5.8 mph - 0.00 in   Overcast
5:12 PM 69.1 °F 64.9 °F 87% 30.11 in 10.0 mi NE 5.8 mph - N/A   Overcast
5:53 PM 68.0 °F 64.9 °F 90% 30.08 in 10.0 mi East 6.9 mph - 0.00 in Rain Light Rain
6:53 PM 68.0 °F 66.0 °F 93% 30.09 in 8.0 mi East 5.8 mph - 0.00 in Rain Light Rain
7:53 PM 66.9 °F 64.9 °F 93% 30.07 in 7.0 mi ENE 6.9 mph - 0.02 in   Overcast
8:17 PM 66.9 °F 64.9 °F 93% 30.11 in 7.0 mi NE 4.6 mph - N/A   Overcast
8:53 PM 66.9 °F 64.9 °F 93% 30.09 in 8.0 mi East 8.1 mph - N/A   Overcast
9:14 PM 66.9 °F 64.9 °F 93% 30.11 in 8.0 mi East 4.6 mph - N/A   Overcast
9:53 PM 66.9 °F 64.9 °F 93% 30.09 in 8.0 mi East 4.6 mph - N/A   Mostly Cloudy
10:53 PM 66.0 °F 64.9 °F 96% 30.08 in 6.0 mi East 4.6 mph - N/A   Partly Cloudy
11:53 PM 66.0 °F 64.9 °F 96% 30.09 in 5.0 mi East 3.5 mph - N/A   Mostly Cloudy